DateTimeUTC,F1_A11,F1_S11,BsB_S11,BsG_S11,BsR_S11,BbsB_S11,BbsG_S11,BbsR_S11,BaB_A11,BaG_A11,BaR_A11,Tu_S11,T_S11,Uu_S11,U_S11,P_S11,T1_A11
2021-06-25T03:00:00Z,00000200,20000000,,,,,,,-000.08,0000.19,0000.37,18.7,25.3,10.5,07.0,0664.7,31.2
2021-06-25T03:01:00Z,00000200,20000000,,,,,,,-000.08,-000.02,-000.72,18.7,25.4,10.5,07.0,0664.7,31.1
2021-06-25T03:02:00Z,00000200,20000000,,,,,,,0000.22,0000.14,0000.41,18.7,25.4,10.5,07.0,0664.6,31.2
2021-06-25T03:03:00Z,00000200,60000000,,,,,,,-000.34,0000.07,0000.14,18.7,25.4,10.5,07.0,0664.6,31.2
2021-06-25T03:04:00Z,00000200,40000000,0000.03,0000.51,0000.08,0000.38,-000.13,0000.08,0000.38,-000.09,0000.14,18.7,25.1,10.7,07.2,0665.4,31.1
2021-06-25T03:05:00Z,00000200,00000000,0000.18,0000.50,0000.27,0000.66,0000.13,0000.18,0000.07,0000.35,0000.10,18.8,25.1,10.7,07.3,0665.4,31.2
2021-06-25T03:06:00Z,00000200,00000000,0000.42,0000.45,-000.26,0000.01,0000.15,0000.20,-000.17,-000.40,-000.20,18.8,25.1,10.8,07.3,0665.4,31.2
2021-06-25T03:07:00Z,00000200,00000000,0000.21,0000.57,-000.16,0000.21,-000.02,0000.37,0000.21,0000.23,-000.42,18.8,25.1,10.9,07.4,0665.4,31.2
2021-06-25T03:08:00Z,00000200,00000000,0000.00,0000.65,-000.26,0000.25,0000.16,-000.01,-000.07,-000.08,0000.48,18.7,25.1,10.9,07.4,0665.3,31.1
2021-06-25T03:09:00Z,00000200,00000000,0000.70,0000.60,0000.23,0000.08,0000.18,0000.26,0000.66,0000.19,0000.28,18.8,25.1,10.8,07.4,0665.4,31.1
2021-06-25T03:10:00Z,00000200,00000000,-000.13,0000.55,-000.05,0000.12,-000.05,0000.01,-000.49,-000.24,-000.15,18.7,25.1,11.0,07.5,0665.3,31.1
2021-06-25T03:11:00Z,00000200,00000000,-000.25,0000.37,-000.03,0000.29,0000.06,0000.02,-000.18,0000.14,-000.08,18.7,25.1,11.0,07.5,0665.3,31.1
2021-06-25T03:12:00Z,00000200,00000000,0000.27,0000.33,0000.25,0000.30,0000.12,0000.29,0000.17,0000.01,0000.10,18.7,25.0,11.0,07.5,0665.2,31.2
2021-06-25T03:13:00Z,00000200,00000000,0000.08,0000.32,-000.04,0000.59,0000.06,0000.29,0000.03,0000.11,0000.11,18.7,25.0,11.1,07.5,0665.2,31.1
2021-06-25T03:14:00Z,00000200,00000000,0000.14,0000.53,0000.07,0000.62,-000.08,-000.03,0000.33,-000.04,-000.19,18.7,25.0,11.0,07.5,0665.2,31.1
2021-06-25T03:15:00Z,00000200,00000000,0000.50,-000.05,0000.06,0000.41,0000.00,0000.30,0000.08,0000.33,0000.04,18.7,25.0,11.0,07.5,0665.2,31.1
2021-06-25T03:16:00Z,00000200,00000000,0000.62,0000.20,0000.10,0000.11,0000.00,-000.02,0000.19,0000.24,0000.11,18.7,25.0,11.0,07.5,0665.2,31.1
2021-06-25T03:17:00Z,00000200,00000000,0000.46,0000.06,0000.41,0000.25,-000.15,0000.38,-000.38,-000.20,0000.34,18.7,25.0,11.2,07.6,0665.1,31.2
2021-06-25T03:18:00Z,00000200,00000000,-000.01,0000.37,0000.47,-000.40,0000.10,0000.27,0000.42,0000.12,0000.07,18.7,25.0,11.1,07.6,0665.1,31.1
2021-06-25T03:19:00Z,00000200,00000000,0000.33,0000.25,0000.19,-000.35,0000.25,0000.19,-000.24,0000.33,-000.02,18.8,25.0,11.1,07.6,0665.1,31.1
2021-06-25T03:20:00Z,00000200,00000000,0000.29,0000.34,-000.21,-000.07,-000.18,0000.01,0000.17,0000.01,-000.39,18.8,25.0,11.1,07.6,0665.1,31.2
2021-06-25T03:21:00Z,00000200,00000000,-000.14,0000.32,0000.06,-000.19,0000.09,-000.11,0000.13,0000.16,0000.58,18.8,25.1,11.1,07.6,0665.0,31.1
2021-06-25T03:22:00Z,00000200,00000000,-000.13,0000.30,-000.01,0000.28,-000.02,0000.29,0000.04,-000.24,-000.18,18.8,25.1,11.2,07.7,0665.0,31.2
2021-06-25T03:23:00Z,00000200,00000000,0000.40,0000.12,0000.11,-000.03,0000.24,0000.22,0000.05,0000.03,0000.10,18.8,25.1,11.2,07.7,0664.9,31.2
2021-06-25T03:24:00Z,00000200,00000000,0000.18,0000.20,0000.34,0000.23,0000.13,0000.24,-000.06,0000.09,-000.09,18.8,25.1,11.2,07.7,0665.0,31.2
2021-06-25T03:25:00Z,00000200,00000000,-000.16,0000.04,0000.10,-000.03,-000.06,-000.06,-000.18,-000.14,-000.08,18.8,25.1,11.3,07.7,0664.9,31.2
2021-06-25T03:26:00Z,00000200,00000000,0000.14,0000.53,0000.18,0000.23,0000.21,0000.08,0000.04,0000.15,-000.04,18.8,25.1,11.4,07.8,0664.9,31.2
2021-06-25T03:27:00Z,00000200,00000000,0000.06,0000.47,0000.06,0000.38,-000.17,0000.03,0000.30,0000.04,-000.00,18.8,25.1,11.5,07.8,0664.9,31.1
2021-06-25T03:28:00Z,00000200,00000000,-000.02,0000.03,0000.16,0000.31,0000.03,0000.24,-000.13,-000.09,0000.06,18.8,25.0,11.5,07.8,0664.9,31.2
2021-06-25T03:29:00Z,00000200,00000000,-000.09,0000.38,0000.03,0000.03,0000.00,-000.15,0000.40,0000.32,0000.45,18.8,25.0,11.5,07.8,0664.9,31.2
2021-06-25T03:30:00Z,00000200,00000000,0000.41,0000.24,0000.33,-000.00,0000.03,0000.16,-000.11,0000.16,0000.06,18.8,25.0,11.5,07.9,0664.9,31.1
2021-06-25T03:31:00Z,00000200,00000000,0000.46,0000.18,0000.07,-000.03,-000.05,0000.00,0000.19,-000.34,-000.47,18.8,25.0,11.5,07.8,0664.8,31.1
2021-06-25T03:32:00Z,00000200,00000000,0000.23,0000.30,-000.00,0000.09,0000.37,0000.05,0000.02,-000.24,0000.38,18.8,25.0,11.6,07.9,0664.8,31.1
2021-06-25T03:33:00Z,00000200,00000000,-000.40,0000.17,0000.06,0000.13,-000.16,0000.43,0000.32,0000.60,-000.01,18.8,25.0,11.6,07.9,0664.7,31.1
2021-06-25T03:34:00Z,00000200,00000000,0000.42,0000.29,0000.23,-000.17,0000.28,0000.14,-000.06,0000.27,0000.17,18.8,25.0,11.6,07.9,0664.7,31.1
2021-06-25T03:35:00Z,00000200,00000000,0000.66,-000.05,0000.35,-000.04,-000.26,0000.20,-000.18,-000.04,-000.15,18.9,25.1,11.7,08.0,0664.7,31.2
2021-06-25T03:36:00Z,00000200,00000000,0000.30,0000.11,-000.08,0000.32,0000.16,0000.04,0000.35,-000.17,0000.26,18.8,25.1,11.6,07.9,0664.6,31.2
2021-06-25T03:37:00Z,00000200,00000000,0000.36,0000.08,0000.05,0000.21,0000.10,0000.21,-000.04,0000.31,0000.07,18.9,25.1,11.7,08.0,0664.6,31.1
2021-06-25T03:38:00Z,00000200,00000000,0000.09,0000.12,0000.07,0000.32,-000.16,0000.19,0000.02,0000.16,0000.15,18.9,25.1,11.7,08.0,0664.7,31.2
2021-06-25T03:39:00Z,00000200,00000000,0000.72,0000.15,0000.24,0000.34,0000.05,-000.01,-000.01,-000.28,-000.23,18.8,25.1,11.7,08.0,0664.7,31.2
2021-06-25T03:40:00Z,00000200,00000000,-000.01,0000.41,0000.17,0000.05,-000.14,0000.19,-000.16,-000.11,-000.12,18.8,25.1,11.7,08.0,0664.6,31.1
2021-06-25T03:41:00Z,00000200,00000000,0000.33,0000.09,0000.11,-000.20,0000.31,0000.37,-000.00,-000.14,0000.24,18.8,25.1,11.7,08.0,0664.6,31.1
2021-06-25T03:42:00Z,00000200,00000000,-000.37,0000.43,0000.30,0000.02,0000.17,-000.05,0000.25,0000.05,-000.17,18.8,25.1,11.7,08.0,0664.6,31.1
2021-06-25T03:43:00Z,00000200,00000000,0000.24,-000.07,-000.01,-000.01,0000.28,0000.20,0000.01,0000.23,-000.07,18.8,25.1,11.8,08.0,0664.6,31.1
2021-06-25T03:44:00Z,00000200,00000000,0000.21,0000.02,0000.25,0000.22,0000.09,0000.15,-000.04,-000.04,0000.45,18.8,25.0,11.8,08.0,0664.5,31.1
2021-06-25T03:45:00Z,00000200,00000000,0000.02,0000.19,-000.07,-000.24,0000.14,-000.07,-000.10,0000.11,-000.32,18.8,25.0,11.8,08.0,0664.5,31.2
2021-06-25T03:46:00Z,00000200,00000000,0000.63,-000.26,0000.17,-000.20,0000.09,0000.22,0000.17,0000.30,0000.13,18.8,25.0,11.8,08.0,0664.5,31.1
2021-06-25T03:47:00Z,00000200,00000000,-000.01,0000.22,0000.09,-000.03,-000.17,0000.00,0000.03,-000.36,-000.07,18.8,25.0,11.9,08.1,0664.5,31.1
2021-06-25T03:48:00Z,00000200,00000000,-000.22,0000.19,0000.18,-000.10,0000.11,0000.07,-000.02,-000.11,-000.21,18.8,25.0,11.8,08.1,0664.4,31.1
2021-06-25T03:49:00Z,00000200,00000000,0000.69,0000.33,0000.23,0000.04,0000.08,0000.15,0000.19,0000.22,0000.33,18.7,25.0,11.8,08.1,0664.4,31.1
2021-06-25T03:50:00Z,00000200,00000000,0000.52,-000.01,0000.02,0000.10,-000.07,0000.16,-000.18,0000.07,-000.13,18.7,25.0,11.9,08.2,0664.4,31.1
2021-06-25T03:51:00Z,00000200,00000000,-000.42,0000.58,-000.03,0000.11,-000.02,0000.06,0000.05,-000.02,0000.29,18.7,25.0,12.0,08.2,0664.4,31.1
2021-06-25T03:52:00Z,00000200,00000000,-000.02,0000.44,-000.08,0000.02,-000.03,0000.24,0000.08,0000.15,-000.57,18.7,25.0,12.0,08.2,0664.3,31.1
2021-06-25T03:53:00Z,00000200,00000000,0000.66,0000.50,0000.14,-000.03,0000.29,0000.18,0000.15,-000.55,0000.59,18.7,25.0,12.0,08.2,0664.4,31.1
2021-06-25T03:54:00Z,00000200,00000000,0000.09,0000.41,0000.28,0000.89,-000.08,0000.21,-000.17,0000.55,-000.26,18.7,24.9,12.1,08.3,0664.3,31.1
2021-06-25T03:55:00Z,00000200,00000000,0000.45,0000.32,-000.09,0000.11,0000.05,0000.36,-000.05,-000.33,-000.01,18.7,24.9,12.2,08.3,0664.3,31.1
2021-06-25T03:56:00Z,00000200,00000000,-000.24,0000.57,0000.03,0000.52,0000.03,0000.05,0000.28,0000.10,0000.30,18.7,24.9,12.3,08.4,0664.3,31.1
2021-06-25T03:57:00Z,00000200,40000000,,,,,,,-000.39,-000.27,-000.41,18.7,25.0,12.5,08.5,0664.3,31.1
2021-06-25T03:58:00Z,00000200,60000000,,,,,,,0000.01,0000.19,0000.21,18.5,25.0,11.9,07.9,0663.3,31.1
2021-06-25T03:59:00Z,00000200,20000000,,,,,,,0000.39,0000.07,-000.08,18.4,25.1,12.0,07.9,0663.3,31.1
